North Bend, OR

12:14 AM PDT on April 20, 2018 (GMT -0700)
North Bend Municipal

Weather History for KOTH - October, 2012

Change the Weather History Date:

Tuesday, October 23, 2012

  Actual Average Record
Temperature  
Mean Temperature 48 °F 53 °F  
Max Temperature 52 °F 60 °F 83 °F (1929)
Min Temperature 43 °F 45 °F 30 °F (1918)
Degree Days  
Heating Degree Days 17 12  
Month to date heating degree days 235 254  
Since 1 July heating degree days 834 862  
Cooling Degree Days 0 0  
Month to date cooling degree days 1 0  
Year to date cooling degree days 1 2  
Moisture  
Dew Point 43 °F    
Average Humidity 93    
Maximum Humidity 100    
Minimum Humidity 80    
Precipitation  
Precipitation 0.84 in 0.19 in 2.01 in (1989)
Month to date precipitation 3.57 2.98  
Year to date precipitation 32.37 41.80  
Sea Level Pressure  
Sea Level Pressure 29.87 in    
Wind  
Wind Speed 10 mph (SSE)    
Max Wind Speed 16 mph    
Max Gust Speed 28 mph    
Visibility 10 miles    
Events      
T = Trace of Precipitation, MM = Missing Value Source: NWS Daily Summary

Daily Weather History Graph

Daily Weather History Graph

Search for Another Location

Airport or City:

Astronomy

Oct. 23, 2012 Rise Set
Actual Time 7:41 AM PDT 6:20 PM PDT
Civil Twilight 7:12 AM PDT 6:49 PM PDT
Nautical Twilight 6:38 AM PDT 7:22 PM PDT
Astronomical Twilight 6:05 AM PDT 7:55 PM PDT
Moon 3:15 PM PDT (10/23) 1:29 AM PDT (10/23)
Length of Visible Light 11h 37m
Length of Day
10h 38m
Waxing Gibbous, 67% of the Moon is Illuminated
Oct 23
Waxing Gibbous
Oct 29
Full
Nov 6
Last Quarter
Nov 13
New
Nov 20
First Quarter

Hourly Weather History & Observations

Time (PDT) Temp. Windchill Dew Point Humidity Pressure Visibility Wind Dir Wind Speed Gust Speed Precip Events Conditions
12:15 AM 44.6 °F 41.4 °F 42.8 °F 93% 29.78 in 6.0 mi South 5.8 mph - 0.02 in   Overcast
12:55 AM 44.6 °F 41.4 °F 42.8 °F 93% 29.78 in 10.0 mi SSE 5.8 mph - 0.06 in   Overcast
1:15 AM 42.8 °F 38.6 °F 42.8 °F 100% 29.79 in 10.0 mi SSE 6.9 mph - N/A   Scattered Clouds
1:35 AM 42.8 °F 38.0 °F 41.0 °F 93% 29.79 in 10.0 mi SSE 8.1 mph - N/A   Scattered Clouds
1:55 AM 42.8 °F 38.6 °F 42.8 °F 100% 29.80 in 10.0 mi SSE 6.9 mph - N/A   Clear
2:15 AM 42.8 °F 37.5 °F 42.8 °F 100% 29.80 in 10.0 mi SSE 9.2 mph - N/A   Partly Cloudy
2:35 AM 42.8 °F 38.0 °F 41.0 °F 93% 29.80 in 10.0 mi SSE 8.1 mph - N/A   Mostly Cloudy
2:55 AM 42.8 °F - 41.0 °F 93% 29.81 in 10.0 mi Calm Calm - N/A   Overcast
3:15 AM 42.8 °F 38.6 °F 41.0 °F 93% 29.81 in 10.0 mi SE 6.9 mph - 0.01 in   Overcast
3:35 AM 42.8 °F 38.6 °F 41.0 °F 93% 29.82 in 10.0 mi SE 6.9 mph - 0.01 in   Overcast
3:55 AM 42.8 °F 38.0 °F 41.0 °F 93% 29.82 in 10.0 mi SSE 8.1 mph - 0.01 in   Mostly Cloudy
4:35 AM 42.8 °F 37.5 °F 41.0 °F 93% 29.82 in 10.0 mi SSE 9.2 mph - N/A   Scattered Clouds
4:55 AM 42.8 °F 37.5 °F 41.0 °F 93% 29.83 in 10.0 mi SSE 9.2 mph - N/A   Mostly Cloudy
5:15 AM 42.8 °F 37.0 °F 41.0 °F 93% 29.84 in 10.0 mi SSE 10.4 mph - N/A   Mostly Cloudy
5:35 AM 42.8 °F 37.5 °F 41.0 °F 93% 29.84 in 10.0 mi SSE 9.2 mph - 0.05 in   Overcast
5:55 AM 44.6 °F 39.2 °F 42.8 °F 93% 29.84 in 10.0 mi SSE 10.4 mph - 0.05 in   Overcast
6:15 AM 44.6 °F 39.7 °F 42.8 °F 93% 29.85 in 10.0 mi SSE 9.2 mph - 0.02 in   Overcast
6:35 AM 42.8 °F 37.5 °F 41.0 °F 93% 29.86 in 10.0 mi SSE 9.2 mph - 0.02 in   Overcast
6:55 AM 42.8 °F 36.6 °F 41.0 °F 93% 29.86 in 10.0 mi SE 11.5 mph - 0.02 in   Scattered Clouds
7:15 AM 42.8 °F 37.0 °F 42.8 °F 100% 29.86 in 10.0 mi SE 10.4 mph - N/A   Mostly Cloudy
7:35 AM 42.8 °F 37.0 °F 42.8 °F 100% 29.86 in 10.0 mi SSE 10.4 mph - 0.01 in   Mostly Cloudy
7:55 AM 42.8 °F 37.5 °F 42.8 °F 100% 29.87 in 10.0 mi SSE 9.2 mph - 0.01 in   Scattered Clouds
8:15 AM 42.8 °F 38.0 °F 41.0 °F 93% 29.88 in 8.0 mi SSE 8.1 mph - N/A   Mostly Cloudy
8:55 AM 44.6 °F 38.8 °F 42.8 °F 93% 29.89 in 10.0 mi SSE 11.5 mph - 0.02 in   Mostly Cloudy
9:15 AM 44.6 °F 39.2 °F 44.6 °F 100% 29.89 in 10.0 mi SSE 10.4 mph - N/A   Partly Cloudy
9:35 AM 46.4 °F 41.5 °F 44.6 °F 93% 29.89 in 10.0 mi SSE 10.4 mph 17.3 mph N/A   Partly Cloudy
9:55 AM 44.6 °F 39.2 °F 44.6 °F 100% 29.89 in 10.0 mi SSE 10.4 mph - N/A   Clear
10:15 AM 46.4 °F 41.5 °F 44.6 °F 93% 29.89 in 10.0 mi SSE 10.4 mph - N/A   Clear
10:35 AM 48.2 °F - 44.6 °F 87% 29.90 in 10.0 mi SSE 10.4 mph - N/A   Clear
10:55 AM 50.0 °F - 46.4 °F 87% 29.89 in 10.0 mi SSE 11.5 mph - N/A   Partly Cloudy
11:15 AM 51.8 °F - 46.4 °F 82% 29.89 in 10.0 mi SSE 12.7 mph - N/A   Clear
11:35 AM 50.0 °F - 44.6 °F 82% 29.89 in 10.0 mi SSE 12.7 mph 18.4 mph N/A   Clear
11:55 AM 48.2 °F - 44.6 °F 87% 29.90 in 10.0 mi South 10.4 mph - N/A   Mostly Cloudy
12:15 PM 50.0 °F - 46.4 °F 87% 29.90 in 10.0 mi South 6.9 mph - N/A   Mostly Cloudy
12:35 PM 51.8 °F - 46.4 °F 82% 29.90 in 10.0 mi South 5.8 mph - N/A   Mostly Cloudy
12:55 PM 50.0 °F - 46.4 °F 87% 29.91 in 10.0 mi SW 16.1 mph 20.7 mph 0.01 in   Mostly Cloudy
1:15 PM 46.4 °F 41.5 °F 44.6 °F 93% 29.92 in 10.0 mi South 10.4 mph 18.4 mph 0.03 in   Overcast
1:35 PM 48.2 °F - 44.6 °F 87% 29.91 in 10.0 mi South 9.2 mph 17.3 mph 0.03 in   Overcast
1:55 PM 48.2 °F - 42.8 °F 82% 29.91 in 10.0 mi South 12.7 mph 27.6 mph 0.03 in   Overcast
2:15 PM 48.2 °F - 42.8 °F 82% 29.90 in 10.0 mi South 13.8 mph 23.0 mph 0.01 in   Mostly Cloudy
2:35 PM 46.4 °F 41.5 °F 44.6 °F 93% 29.91 in 10.0 mi South 10.4 mph - 0.01 in   Overcast
2:55 PM 46.4 °F 42.9 °F 44.6 °F 93% 29.91 in 10.0 mi South 6.9 mph 16.1 mph 0.05 in   Overcast
3:15 PM 46.4 °F 40.7 °F 44.6 °F 93% 29.91 in 8.0 mi SSW 12.7 mph 16.1 mph 0.05 in   Mostly Cloudy
3:35 PM 44.6 °F 40.7 °F 44.6 °F 100% 29.91 in 10.0 mi South 6.9 mph - 0.12 in   Overcast
3:55 PM 44.6 °F 39.7 °F 44.6 °F 100% 29.90 in 10.0 mi South 9.2 mph - 0.15 in   Overcast
4:15 PM 46.4 °F 41.5 °F 44.6 °F 93% 29.90 in 10.0 mi SSE 10.4 mph - 0.02 in   Overcast
4:35 PM 46.4 °F 40.1 °F 44.6 °F 93% 29.90 in 10.0 mi South 15.0 mph 18.4 mph 0.03 in   Overcast
4:55 PM 44.6 °F 38.1 °F 44.6 °F 100% 29.89 in 10.0 mi SSE 13.8 mph - 0.04 in   Overcast
5:15 PM 44.6 °F 37.8 °F 44.6 °F 100% 29.88 in 10.0 mi SE 15.0 mph - N/A   Overcast
5:35 PM 44.6 °F 38.4 °F 42.8 °F 93% 29.88 in 10.0 mi SE 12.7 mph 21.9 mph 0.01 in   Overcast
5:55 PM 44.6 °F 38.8 °F 42.8 °F 93% 29.88 in 10.0 mi SE 11.5 mph - 0.04 in   Overcast
6:15 PM 44.6 °F 38.4 °F 44.6 °F 100% 29.88 in 7.0 mi SE 12.7 mph 20.7 mph 0.09 in   Overcast
6:35 PM 44.6 °F 40.7 °F 44.6 °F 100% 29.89 in 10.0 mi South 6.9 mph - 0.18 in   Overcast
6:55 PM 44.6 °F 40.2 °F 44.6 °F 100% 29.89 in 9.0 mi South 8.1 mph - 0.23 in   Overcast
7:15 PM 44.6 °F 39.2 °F 42.8 °F 93% 29.88 in 10.0 mi SSE 10.4 mph 16.1 mph 0.01 in   Overcast
7:35 PM 44.6 °F 38.4 °F 42.8 °F 93% 29.87 in 10.0 mi SE 12.7 mph - 0.01 in   Overcast
7:55 PM 44.6 °F 38.8 °F 42.8 °F 93% 29.87 in 10.0 mi SE 11.5 mph - 0.02 in   Overcast
8:15 PM 44.6 °F 39.2 °F 42.8 °F 93% 29.87 in 10.0 mi SE 10.4 mph - 0.01 in   Overcast
8:35 PM 44.6 °F 38.1 °F 42.8 °F 93% 29.87 in 10.0 mi SE 13.8 mph 20.7 mph 0.04 in   Overcast
8:55 PM 44.6 °F 39.2 °F 42.8 °F 93% 29.86 in 10.0 mi SE 10.4 mph - 0.10 in   Overcast
9:35 PM 44.6 °F 38.8 °F 42.8 °F 93% 29.87 in 10.0 mi SE 11.5 mph - 0.03 in   Overcast
9:55 PM 44.6 °F 38.4 °F 42.8 °F 93% 29.87 in 10.0 mi SE 12.7 mph - 0.04 in   Overcast
10:15 PM 44.6 °F 38.1 °F 42.8 °F 93% 29.87 in 10.0 mi SE 13.8 mph 17.3 mph N/A   Overcast
10:35 PM 44.6 °F 38.8 °F 42.8 °F 93% 29.87 in 10.0 mi SSE 11.5 mph - N/A   Overcast
10:55 PM 44.6 °F 39.2 °F 42.8 °F 93% 29.88 in 10.0 mi SE 10.4 mph - N/A   Overcast
11:15 PM 44.6 °F 38.8 °F 44.6 °F 100% 29.88 in 8.0 mi SSE 11.5 mph - 0.01 in   Mostly Cloudy
11:35 PM 44.6 °F 38.4 °F 42.8 °F 93% 29.88 in 10.0 mi SE 12.7 mph 18.4 mph 0.01 in   Mostly Cloudy
11:55 PM 44.6 °F 38.1 °F 42.8 °F 93% 29.88 in 10.0 mi SE 13.8 mph - 0.02 in   Scattered Clouds